星链-30713 (STARLINK-30713 )

导读 | 豆包AI

STARLINK-30713是美国SpaceX公司星链(Starlink)卫星互联网星座的一员,于2023年9月25日发射入轨。作为星链低轨卫星星座的组成部分,它运行在近地轨道,为全球提供高速低延迟的互联网接入服务,重点覆盖传统基础设施难以抵达的偏远区域。星链星座旨在弥合数字鸿沟,同时也逐步拓展军事、应急通信等应用场景,不过大规模低轨卫星部署也引发了天文观测、太空安全等领域的讨论。

基本信息
目录编号:
57952
目录名称:
STARLINK-30713
国际标识:
2023-148T
轨道中心:
EARTH
卫星名称:
星链-30713
卫星全名:
星链-30713 (STARLINK-30713 )
卫星状态:
在轨 (已飞行948 天)
发射日期:
2023-09-25 UTC
国别 :
美国 (US)
星等 :
--
轨道信息
数据来源 国际轨道数据
星历时间: 2026-04-30T14:45:52+0800
11小时前
查看轨道信息
半长轴: 6853.37km
偏心率: 0.0001092
轨道倾角: 53.159°
近地点辐角 70.315°
升交点赤经 144.480°
平近点角 289.797°
近地点: 474.484km
远地点: 475.982km
周期: 94.106分钟
每日圈数: 15.301942
详细信息
固有亮度:
5
最大亮度:
0.3
卫星平台:
Starlink v2.0 mini
覆盖范围:
全球
运营商:
太空探索技术公司
运营商所在国:
美国
制造商(研发单位):
太空探索技术公司
制造商所在国:
美国
使用方式:
暂无
卫星简介
星链(Starlink)计划是由太空探索技术公司(SpaceX)提出的一个巨型低轨卫星互联网星座项目,计划在2019年至2024年间在太空搭建由约1.2万颗卫星组成的“星链”网络,其中1584颗将部署在地球上空550千米处的近地轨道,并从2020年开始工作。该卫星仍在工作。
2D轨道图
3D轨道图
轨道高度分析图
轨道倾角分析图
轨道综合分析图
查看轨道综合分析图